CW8398 Weather Reports


Display with metric or nautical units.
time (UTC)temp
F
wind
direction
speed
MPH
gust
MPH
rain 1hr
in
rain 24hr
in
rain mn
in
humidity
%
barometer
mb
20260509073303 52 175 2.0 8.0 0.00 0.00 0.00 52 1024.7
20260509072804 52 99 2.0 7.0 0.00 0.00 0.00 52 1024.7
20260509072306 52 142 2.0 7.0 0.00 0.00 0.00 53 1024.7
20260509071803 52 5 2.0 9.0 0.00 0.00 0.00 53 1024.7
20260509071303 52 103 4.0 10.0 0.00 0.00 0.00 53 1024.7
20260509070803 52 34 2.0 7.0 0.00 0.00 0.00 54 1024.7
20260509070304 52 83 2.0 7.0 0.00 0.00 0.00 53 1024.7
20260509065803 52 45 2.0 7.0 0.00 0.00 0.00 55 1024.7
20260509065306 51 76 3.0 7.0 0.00 0.00 0.00 57 1024.7
20260509064303 51 208 1.0 5.0 0.00 0.00 0.00 61 1024.7
20260509063804 50 188 2.0 7.0 0.00 0.00 0.00 60 1024.7
20260509063304 50 15 2.0 7.0 0.00 0.00 0.00 63 1024.7
20260509062804 49 164 2.0 3.0 0.00 0.00 0.00 66 1024.7
20260509062306 49 193 1.0 3.0 0.00 0.00 0.00 66 1024.7
20260509061803 48 125 2.0 7.0 0.00 0.00 0.00 69 1024.7
20260509060803 47 202 1.0 2.0 0.00 0.00 0.00 73 1024.7
20260509060303 46 112 1.0 3.0 0.00 0.00 0.00 75 1024.7
20260509055804 46 144 0.0 2.0 0.00 0.00 0.00 77 1024.7
20260509055306 45 52 1.0 3.0 0.00 0.00 0.00 79 1024.7
20260509054803 44 139 0.0 2.0 0.00 0.00 0.00 82 1024.7
20260509054303 44 201 0.0 2.0 0.00 0.00 0.00 83 1024.7
20260509053803 43 142 0.0 1.0 0.00 0.00 0.00 84 1024.7
20260509053303 43 132 0.0 2.0 0.00 0.00 0.00 85 1024.9
20260509052803 42 173 0.0 2.0 0.00 0.00 0.00 87 1024.9
20260509052306 42 161 0.0 3.0 0.00 0.00 0.00 87 1024.9
20260509051804 42 150 0.0 1.0 0.00 0.00 0.00 88 1024.9
20260509051303 41 147 0.0 3.0 0.00 0.00 0.00 89 1024.9
20260509050804 41 172 0.0 3.0 0.00 0.00 0.00 90 1024.9
20260509050304 41 355 0.0 1.0 0.00 0.00 0.00 91 1024.9
20260509045804 41 355 0.0 1.0 0.00 0.00 0.00 91 1024.9
20260509045306 41 355 0.0 1.0 0.00 0.00 0.00 91 1024.9
20260509044803 40 343 0.0 0.0 0.00 0.00 0.00 91 1024.9
20260509044303 40 355 0.0 0.0 0.00 0.00 0.00 92 1024.9
20260509043803 40 355 0.0 0.0 0.00 0.00 0.00 92 1024.9
20260509043304 40 355 0.0 1.0 0.00 0.00 0.00 91 1024.9
20260509042804 40 355 1.0 1.0 0.00 0.00 0.00 91 1024.9
20260509042306 39 355 0.0 1.0 0.00 0.00 0.00 91 1024.9
20260509041803 39 355 0.0 1.0 0.00 0.00 0.00 91 1024.9
20260509040804 39 355 0.0 0.0 0.00 0.00 0.00 90 1024.9
20260509040303 38 355 0.0 0.0 0.00 0.00 0.00 90 1024.9
20260509035804 38 355 0.0 0.0 0.00 0.00 0.00 90 1024.9
20260509035306 38 355 0.0 0.0 0.00 0.00 0.00 90 1024.9
20260509034804 38 355 0.0 0.0 0.00 0.00 0.00 90 1024.9
20260509033804 38 355 0.0 0.0 0.00 0.00 0.00 89 1024.9
20260509033304 38 355 0.0 0.0 0.00 0.00 0.00 89 1024.9
20260509032306 38 355 0.0 0.0 0.00 0.00 0.00 89 1024.9
20260509031803 38 355 0.0 0.0 0.00 0.00 0.00 89 1024.9
20260509031303 38 355 0.0 0.0 0.00 0.00 0.00 89 1024.9
20260509030804 38 355 0.0 0.0 0.00 0.00 0.00 88 1024.9
20260509030304 38 355 0.0 0.0 0.00 0.00 0.00 88 1024.9
20260509024304 38 355 0.0 0.0 0.00 0.00 0.00 88 1024.9
20260509022804 38 355 0.0 0.0 0.00 0.00 0.00 88 1024.9
20260509022306 38 355 0.0 0.0 0.00 0.00 0.00 87 1024.9
20260509021803 38 355 0.0 0.0 0.00 0.00 0.00 87 1024.9
20260509020803 37 355 0.0 0.0 0.00 0.00 0.00 87 1024.9
20260509015804 37 355 0.0 0.0 0.00 0.00 0.00 85 1024.9
20260509015306 37 355 0.0 0.0 0.00 0.00 0.00 85 1024.9
20260509014804 37 355 0.0 0.0 0.00 0.00 0.00 85 1024.9
20260509014304 37 355 0.0 0.0 0.00 0.00 0.00 85 1024.9
20260509013803 37 355 0.0 0.0 0.00 0.00 0.00 84 1024.9
20260509013304 37 355 0.0 0.0 0.00 0.00 0.00 84 1024.9
20260509012306 38 355 0.0 0.0 0.00 0.00 0.00 83 1024.9
20260509011804 38 355 0.0 0.0 0.00 0.00 0.00 83 1024.9
20260509010804 38 355 0.0 0.0 0.00 0.00 0.00 84 1024.9
20260509010304 38 355 0.0 0.0 0.00 0.00 0.00 83 1024.9
20260509005306 38 355 0.0 0.0 0.00 0.00 0.00 84 1024.9
20260509004803 39 355 0.0 0.0 0.00 0.00 0.00 83 1024.9
20260509004303 39 355 0.0 0.0 0.00 0.00 0.00 83 1024.9
20260509003804 39 355 0.0 0.0 0.00 0.00 0.00 83 1024.9
20260509003303 39 355 0.0 0.0 0.00 0.00 0.00 84 1024.9
20260509002803 40 355 0.0 1.0 0.00 0.00 0.00 84 1024.9
20260509001803 40 355 0.0 1.0 0.00 0.00 0.00 84 1024.9
20260509001303 40 355 0.0 1.0 0.00 0.00 0.00 85 1024.9
20260509000803 40 355 0.0 0.0 0.00 0.00 0.00 85 1024.9
20260509000304 40 355 0.0 0.0 0.00 0.00 0.00 85 1024.9
20260508235804 40 355 0.0 0.0 0.00 0.00 0.00 86 1024.9
20260508235306 40 355 1.0 1.0 0.00 0.00 0.00 85 1024.9
20260508234803 40 355 0.0 1.0 0.00 0.00 0.00 85 1024.9
20260508234303 40 355 0.0 1.0 0.00 0.00 0.00 85 1024.9
20260508233804 40 355 0.0 1.0 0.00 0.00 0.00 85 1024.9
20260508233304 40 355 0.0 2.0 0.00 0.00 0.00 84 1024.9
20260508232804 40 355 0.0 1.0 0.00 0.00 0.00 84 1024.9
20260508232307 40 355 0.0 1.0 0.00 0.00 0.00 83 1024.9
20260508231803 40 355 0.0 1.0 0.00 0.00 0.00 83 1024.9
20260508230303 39 355 0.0 0.0 0.00 0.00 0.00 81 1024.9
20260508225804 39 355 0.0 0.0 0.00 0.00 0.00 80 1024.9
20260508225306 39 355 0.0 0.0 0.00 0.00 0.00 80 1024.9
20260508224304 39 355 0.0 0.0 0.00 0.00 0.00 77 1024.9
20260508223804 39 355 0.0 0.0 0.00 0.00 0.00 76 1025.0
20260508222803 39 355 0.0 0.0 0.00 0.00 0.00 75 1025.0
20260508222306 39 355 0.0 0.0 0.00 0.00 0.00 75 1025.0
20260508221804 39 355 0.0 0.0 0.00 0.00 0.00 75 1025.0
20260508221303 39 355 0.0 0.0 0.00 0.00 0.00 75 1025.0
20260508220816 39 355 0.0 0.0 0.00 0.00 0.00 75 1025.0
20260508220303 39 355 0.0 0.0 0.00 0.00 0.00 74 1025.0
20260508215802 39 355 0.0 0.0 0.00 0.00 0.00 71 1025.0
20260508215301 39 355 0.0 0.0 0.00 0.00 0.00 67 1025.0
20260508214802 39 355 0.0 0.0 0.00 0.00 0.00 67 1025.2
20260508213802 39 355 0.0 0.0 0.00 0.00 0.00 68 1025.2
20260508212802 39 355 0.0 0.0 0.00 0.00 0.00 70 1025.2
20260508212306 39 355 0.0 0.0 0.00 0.00 0.00 71 1025.1
20260508211302 40 355 0.0 0.0 0.00 0.00 0.00 70 1025.1
20260508210802 40 355 0.0 0.0 0.00 0.00 0.00 69 1025.1
20260508210302 40 355 0.0 0.0 0.00 0.00 0.00 68 1025.1
20260508205305 40 355 0.0 0.0 0.00 0.00 0.00 65 1025.1
20260508204802 40 355 0.0 0.0 0.00 0.00 0.00 64 1025.1
20260508204302 40 355 0.0 0.0 0.00 0.00 0.00 64 1025.1
20260508203802 40 355 0.0 0.0 0.00 0.00 0.00 64 1025.1
20260508203302 41 355 0.0 0.0 0.00 0.00 0.00 62 1025.1
20260508202802 41 355 0.0 0.0 0.00 0.00 0.00 62 1025.1
20260508201802 41 355 0.0 0.0 0.00 0.00 0.00 58 1025.1
20260508201302 41 355 0.0 0.0 0.00 0.00 0.00 57 1025.0
20260508200802 41 355 0.0 0.0 0.00 0.00 0.00 57 1025.0
20260508200302 42 355 0.0 0.0 0.00 0.00 0.00 55 1025.0
20260508195802 42 355 0.0 0.0 0.00 0.00 0.00 55 1025.0
20260508195305 42 355 0.0 0.0 0.00 0.00 0.00 55 1024.9
20260508194802 42 355 0.0 0.0 0.00 0.00 0.00 54 1024.9
20260508193302 43 355 0.0 0.0 0.00 0.00 0.00 51 1024.9
20260508192802 43 355 0.0 0.0 0.00 0.00 0.00 50 1024.9
20260508192305 44 355 0.0 0.0 0.00 0.00 0.00 50 1024.8
20260508191802 44 355 0.0 0.0 0.00 0.00 0.00 50 1024.8
20260508191302 44 355 0.0 0.0 0.00 0.00 0.00 50 1024.8
20260508190802 44 355 0.0 0.0 0.00 0.00 0.00 50 1024.8
20260508185802 45 355 0.0 0.0 0.00 0.00 0.00 50 1024.6
20260508185306 45 355 0.0 0.0 0.00 0.00 0.00 48 1024.6
20260508184802 45 355 0.0 0.0 0.00 0.00 0.00 47 1024.6
20260508183302 46 355 0.0 0.0 0.00 0.00 0.00 45 1024.6
20260508182802 47 355 0.0 0.0 0.00 0.00 0.00 44 1024.6
20260508182306 47 355 0.0 0.0 0.00 0.00 0.00 44 1024.6
20260508181801 47 355 0.0 0.0 0.00 0.00 0.00 43 1024.6
20260508181302 48 355 0.0 0.0 0.00 0.00 0.00 42 1024.6
20260508180302 49 355 0.0 0.0 0.00 0.00 0.00 40 1024.6
20260508175802 49 355 0.0 0.0 0.00 0.00 0.00 40 1024.6
20260508175305 49 355 0.0 0.0 0.00 0.00 0.00 38 1024.6
20260508174802 50 355 0.0 0.0 0.00 0.00 0.00 38 1024.5
20260508173302 51 355 0.0 0.0 0.00 0.00 0.00 36 1024.5
20260508172306 51 355 0.0 2.0 0.00 0.00 0.00 36 1024.5
20260508171802 52 344 0.0 1.0 0.00 0.00 0.00 35 1024.5
20260508165802 52 222 1.0 2.0 0.00 0.00 0.00 34 1024.7
20260508165306 53 202 0.0 2.0 0.00 0.00 0.00 34 1024.7
20260508164802 53 191 0.0 2.0 0.00 0.00 0.00 35 1024.7
20260508164302 53 137 1.0 3.0 0.00 0.00 0.00 34 1024.8
20260508163802 53 0 1.0 5.0 0.00 0.00 0.00 33 1024.8
20260508163302 54 26 2.0 3.0 0.00 0.00 0.00 34 1024.8
20260508162802 54 102 1.0 3.0 0.00 0.00 0.00 35 1024.8
20260508162306 54 341 1.0 3.0 0.00 0.00 0.00 34 1024.9
20260508161302 54 155 1.0 3.0 0.00 0.00 0.00 34 1024.9
20260508160801 53 222 1.0 5.0 0.00 0.00 0.00 34 1024.9
20260508160303 54 162 2.0 7.0 0.00 0.00 0.00 31 1024.9
20260508155802 54 163 2.0 5.0 0.00 0.00 0.00 33 1024.9
20260508155305 54 180 3.0 6.0 0.00 0.00 0.00 31 1024.9
20260508154303 54 183 2.0 5.0 0.00 0.00 0.00 32 1025.0
20260508153802 54 198 2.0 7.0 0.00 0.00 0.00 33 1025.0
20260508153302 54 123 2.0 3.0 0.00 0.00 0.00 32 1025.0
20260508152802 54 159 2.0 8.0 0.00 0.00 0.00 35 1025.0
20260508151802 54 179 4.0 9.0 0.00 0.00 0.00 32 1025.0
20260508151302 55 177 3.0 9.0 0.00 0.00 0.00 32 1025.0
20260508150802 54 333 2.0 8.0 0.00 0.00 0.00 34 1025.0
20260508150302 55 163 2.0 7.0 0.00 0.00 0.00 32 1025.1
20260508145802 55 149 2.0 6.0 0.00 0.00 0.00 32 1025.1
20260508145302 55 201 2.0 5.0 0.00 0.00 0.00 34 1025.1
20260508144802 55 159 2.0 6.0 0.00 0.00 0.00 33 1025.1
20260508144302 55 181 5.0 9.0 0.00 0.00 0.00 33 1025.1
20260508142306 54 179 3.0 7.0 0.00 0.00 0.00 36 1025.1
20260508141802 55 191 3.0 7.0 0.00 0.00 0.00 36 1025.1
20260508141303 54 155 2.0 7.0 0.00 0.00 0.00 38 1025.1
20260508140802 54 174 5.0 8.0 0.00 0.00 0.00 38 1025.2
20260508135802 54 168 5.0 8.0 0.00 0.00 0.00 37 1025.2
20260508134802 54 173 5.0 15.0 0.00 0.00 0.00 37 1025.1
20260508133802 54 182 5.0 12.0 0.00 0.00 0.00 38 1025.2
20260508133303 54 170 6.0 12.0 0.00 0.00 0.00 37 1025.3
20260508132802 55 183 6.0 12.0 0.00 0.00 0.00 37 1025.3
20260508131802 56 171 3.0 6.0 0.00 0.00 0.00 33 1025.3
20260508131302 56 169 2.0 6.0 0.00 0.00 0.00 31 1025.3
20260508130802 56 138 3.0 5.0 0.00 0.00 0.00 32 1025.3
20260508130302 56 157 3.0 12.0 0.00 0.00 0.00 31 1025.3
20260508125802 55 177 3.0 12.0 0.00 0.00 0.00 27 1025.3
20260508124802 56 204 3.0 7.0 0.00 0.00 0.00 30 1025.3
20260508124302 56 94 1.0 7.0 0.00 0.00 0.00 30 1025.3
20260508123802 56 112 3.0 10.0 0.00 0.00 0.00 28 1025.3
20260508122306 57 160 2.0 6.0 0.00 0.00 0.00 27 1025.3
20260508121302 58 230 2.0 5.0 0.00 0.00 0.00 26 1025.3
20260508120802 56 10 2.0 5.0 0.00 0.00 0.00 26 1025.3
20260508120302 56 38 3.0 8.0 0.00 0.00 0.00 28 1025.3
20260508115802 56 212 2.0 5.0 0.00 0.00 0.00 28 1025.3
20260508115306 56 309 1.0 5.0 0.00 0.00 0.00 28 1025.3
20260508113303 56 77 3.0 7.0 0.00 0.00 0.00 31 1025.3
20260508112802 56 178 2.0 7.0 0.00 0.00 0.00 31 1025.3
20260508112306 57 181 3.0 8.0 0.00 0.00 0.00 30 1025.3
20260508111802 56 310 2.0 6.0 0.00 0.00 0.00 31 1025.3
20260508111302 56 66 3.0 7.0 0.00 0.00 0.00 30 1025.3
20260508110802 56 115 2.0 7.0 0.00 0.00 0.00 30 1025.3
20260508110302 57 149 2.0 5.0 0.00 0.00 0.00 30 1025.3
20260508105802 56 186 2.0 6.0 0.00 0.00 0.00 32 1025.3
20260508105305 56 135 2.0 6.0 0.00 0.00 0.00 32 1025.3
20260508104302 56 151 2.0 5.0 0.00 0.00 0.00 34 1025.3
20260508103802 55 126 2.0 8.0 0.00 0.00 0.00 34 1025.3
20260508103302 55 52 2.0 6.0 0.00 0.00 0.00 36 1025.3
20260508102802 55 77 3.0 7.0 0.00 0.00 0.00 36 1025.3
20260508102306 55 42 3.0 6.0 0.00 0.00 0.00 35 1025.3
20260508101802 55 52 2.0 7.0 0.00 0.00 0.00 38 1025.3
20260508101302 55 31 3.0 8.0 0.00 0.00 0.00 35 1025.3
20260508100802 55 25 3.0 8.0 0.00 0.00 0.00 35 1025.3
20260508100303 55 22 3.0 8.0 0.00 0.00 0.00 35 1025.3
20260508095803 55 76 2.0 7.0 0.00 0.00 0.00 38 1025.3
20260508095306 55 247 2.0 8.0 0.00 0.00 0.00 38 1025.3
20260508094302 55 148 2.0 8.0 0.00 0.00 0.00 38 1025.3
20260508093802 54 36 3.0 8.0 0.00 0.00 0.00 39 1025.3
20260508093302 55 37 2.0 7.0 0.00 0.00 0.00 41 1025.3
20260508092802 55 130 2.0 5.0 0.00 0.00 0.00 42 1025.3
20260508092311 54 188 1.0 5.0 0.00 0.00 0.00 43 1025.3
20260508091802 54 188 3.0 6.0 0.00 0.00 0.00 42 1025.3
20260508090303 54 160 3.0 8.0 0.00 0.00 0.00 42 1025.2
20260508085802 54 183 2.0 6.0 0.00 0.00 0.00 44 1025.2
20260508084303 54 89 2.0 6.0 0.00 0.00 0.00 44 1025.2
20260508083802 54 189 2.0 5.0 0.00 0.00 0.00 44 1025.2
20260508082802 53 205 2.0 3.0 0.00 0.00 0.00 43 1025.1
20260508082306 53 117 2.0 3.0 0.00 0.00 0.00 44 1024.7
20260508081303 53 188 1.0 3.0 0.00 0.00 0.00 46 1024.7
20260508080803 53 353 2.0 3.0 0.00 0.00 0.00 46 1024.7
20260508080303 53 207 2.0 8.0 0.00 0.00 0.00 46 1024.7
20260508075803 53 44 2.0 8.0 0.00 0.00 0.00 45 1024.7
20260508075307 53 48 2.0 6.0 0.00 0.00 0.00 45 1024.7
20260508074802 53 254 1.0 3.0 0.00 0.00 0.00 44 1024.7
20260508074302 53 0 1.0 3.0 0.00 0.00 0.00 46 1024.7
20260508073802 52 275 1.0 3.0 0.00 0.00 0.00 47 1024.6